Regional Weather Roundup
Issued by NWS

Home | Current Version | Previous Version | Graphics & Text | Print | Product List | Glossary On
Versions: 1 2 3 4 5 6 7 8 9 10 11 12 13 14 15 16 17 18 19 20 21 22 23 24 25 26 27 28 29 30 31 32 33 34 35 36 37 38 39 40 41 42 43 44 45 46 47 48 49 50
000
ASUS43 KMPX 022010
RWRMN
WEATHER ROUNDUP FOR MINNESOTA
NATIONAL WEATHER SERVICE TWIN CITIES/CHANHASSEN MN
300 PM CDT THU JUL 02 2015


NOTE: "FAIR" INDICATES FEW OR NO CLOUDS BELOW 12,000 FEET WITH NO
SIGNIFICANT WEATHER AND/OR OBSTRUCTIONS TO VISIBILITY. N/A MEANS
CURRENT SKY AND/OR WEATHER CONDITIONS ARE NOT AVAILABLE.

MNZ060>063-068>070-022100-
   Twin Cities Metro

CITY           SKY/WX    TMP DP  RH WIND       PRES   REMARKS
TWIN CITIES    MOSUNNY   76  52  43 SE6       30.01S
ST PAUL        SUNNY     76  52  43 CALM      30.01S
CRYSTAL        MOSUNNY   78  50  37 SE5       29.99S
BLAINE         MOSUNNY   77  50  38 CALM      30.01S
LAKEVILLE      MOSUNNY   72  55  56 SE3       30.02S
EDEN PRAIRIE   CLOUDY    76  54  46 CALM      30.00S
SOUTH ST PAUL  SUNNY     76  54  45 S8        30.01S
LAKE ELMO      FAIR      73  54  49 CALM      30.02S
$$
MNZ001>005-007-008-013>017-022>024-027-028-022100-
   Northwest Minnesota

CITY           SKY/WX    TMP DP  RH WIND       PRES   REMARKS
BEMIDJI        MOSUNNY   74  57  56 SW7       29.99S
HALLOCK        PTSUNNY   75  64  69 S9        29.90F
ROSEAU         SUNNY     73  63  68 SW10      29.93F
WARROAD        MOSUNNY   73  61  64 SW8G17    29.94S
THIEF RVR FALL SUNNY     75  55  50 SW13      29.96F
CROOKSTON      MOSUNNY   77  57  50 SW16      29.95F
FOSSTON        SUNNY     73  55  53 S14       29.99S
DETROIT LAKES  SUNNY     73  54  49 S8        30.01F
MOORHEAD       SUNNY     75  54  46 SW9       29.98S
PARK RAPIDS    MOSUNNY   77  55  46 S13G18    30.00F
MAHNOMEN       FAIR      74  56  51 SW13      29.98F
$$
MNZ006-009>011-018-025>026-022100-
   North Central Minnesota

CITY           SKY/WX    TMP DP  RH WIND       PRES   REMARKS
BAUDETTE       MOSUNNY   75  52  44 SW12      29.94F
FLAG ISLAND    MOSUNNY   73  57  56 SW12      29.90F
INTL FALLS     MOSUNNY   76  54  46 W9G17     29.94F
WASKISH        MOSUNNY   73  61  64 SW12      29.97
BIG FORK       SUNNY     75  59  57 SW10      29.98F
LONGVILLE      SUNNY     75  57  53 W6        30.00S
GRAND RAPIDS   MOSUNNY   73  55  53 S7        30.00F
CRANE LAKE     CLOUDY    72  61  68 W2        29.97S
ORR            MOSUNNY   75  54  46 W9        29.95S
COOK           SUNNY     75  57  53 SW8       29.98S
WALKER         FAIR      74  56  52 SW9       29.99F
$$
MNZ012-019>021-037-022100-
   Northeast Minnesota

CITY           SKY/WX    TMP DP  RH WIND       PRES   REMARKS
DULUTH         PTSUNNY   74  57  55 W9        30.00F
ELY            MOSUNNY   75  57  53 SW9       29.97S
HIBBING        SUNNY     76  56  49 W7        29.99F
DULUTH HARBOR  SUNNY     79  61  53 S10       29.97F
TWO HARBORS    MOSUNNY   79  66  65 SW9       29.97S
SILVER BAY     MOSUNNY   77  61  57 S8        29.95F
GRAND MARAIS     N/A     55  51  86 SW5       29.96F
G MARAIS ARPRT PTSUNNY   68  55  64 S8        30.01S
$$
MNZ029>031-032-039>041-046>048-054>057-064-022100-
   West Central Minnesota

CITY           SKY/WX    TMP DP  RH WIND       PRES   REMARKS
FERGUS FALLS   SUNNY     73  54  49 S12       29.98F
WHEATON        MOSUNNY   72  52  49 SE7       30.00F
MORRIS         MOSUNNY   75  46  35 S8        30.00S
ALEXANDRIA     MOSUNNY   72  53  51 S9        30.03S
ELBOW LAKE     FAIR      73  52  48 S7        30.00F
WADENA         MOSUNNY   73  54  49 SW12      30.00F
GLENWOOD       MOSUNNY   72  55  56 SE7       30.02F
APPLETON       PTSUNNY   75  45  33 S6        30.00S
BENSON         PTSUNNY   73  45  35 S3        30.01S
ORTONVILLE     PTSUNNY   73  48  40 SE3       30.00S
MADISON        PTSUNNY   73  50  43 S5        30.00F
WILLMAR        FAIR      75  48  38 CALM      30.02F
$$
MNZ033>034-036-042>043-049>051-058-059-022100-
   Central Minnesota

CITY           SKY/WX    TMP DP  RH WIND       PRES   REMARKS
ST CLOUD       PTSUNNY   76  54  46 VRB7      30.01S
SAUK CENTRE    FAIR      73  56  55 S7        30.02S
PAYNESVILLE    MOSUNNY   71  53  52 SE7       30.02F
AITKIN         SUNNY     77  57  50 SW6       29.99F
PINE RIVER       N/A     75  57  53 SW5       30.03F
BRAINERD       MOSUNNY   77  53  43 SE8       30.00F
STAPLES        SUNNY     73  54  49 S7        30.01S
LONG PRAIRIE   PTSUNNY   72  55  56 SE8       30.02S
LITTLE FALLS   MOSUNNY   77  50  38 SE6       30.01S
LITCHFIELD     MOSUNNY   75  54  46 S3        30.02F
BUFFALO        MOSUNNY   74  51  44 S5        30.02F
MAPLE LAKE     PTSUNNY   74  60  61 CALM      30.02F
$$
MNZ037-044-045-052-053-022100-
   East Central Minnesota

CITY           SKY/WX    TMP DP  RH WIND       PRES   REMARKS
PRINCETON      SUNNY     79  54  41 SE7       30.01S
MORA           MOSUNNY   73  54  49 S3        30.02F
CAMBRIDGE      SUNNY     79  57  47 E7        29.99F
RUSH CITY      SUNNY     76  55  48 S6        30.01S
MOOSE LAKE     MOSUNNY   75  63  64 SW7       29.99S
HINCKLEY       MOCLDY    75  57  53 SE6       30.00F
CLOQUET        PTSUNNY   73  54  49 SW3       30.00F
MCGREGOR       MOSUNNY   77  55  47 SW6       30.00F
$$
MNZ071>073-080-081-089-090-097-098-022100-
   Southwest Minnesota

CITY           SKY/WX    TMP DP  RH WIND       PRES   REMARKS
MONTEVIDEO     PTSUNNY   73  52  46 SW6       30.01F
GRANITE FALLS  PTSUNNY   72  51  47 CALM      30.03R
CANBY          CLOUDY    70  54  56 SE6       30.02S
MARSHALL       PTSUNNY   72  46  40 E7        30.00F
REDWOOD FALLS  PTSUNNY   75  47  36 S10       30.01R
OLIVIA         PTSUNNY   72  46  40 S6        30.01S
PIPESTONE      CLOUDY    70  46  43 SE7       30.01S
WINDOM         MOSUNNY   73  46  38 E6        30.01F
WORTHINGTON    PTSUNNY   68  50  52 SE9       30.02S
JACKSON        PTSUNNY   73  50  43 S8        30.02S
TRACY          PTSUNNY   74  50  42 SE8       30.01F
SLAYTON        MOSUNNY   72  49  44 CALM      30.02S
$$
MNZ065>067-074>077-082>085-091>093-022100-
   South Central Minnesota

CITY           SKY/WX    TMP DP  RH WIND       PRES   REMARKS
MANKATO        MOSUNNY   73  52  46 SE7       30.01S
NEW ULM        PTSUNNY   72  48  43 SE6       30.01S
ST JAMES       PTSUNNY   73  52  46 E6        30.02S
FAIRMONT       MOSUNNY   72  46  40 SE7       30.01S
GLENCOE        MOSUNNY   77  55  47 SE3       30.01S
FARIBAULT      SUNNY     75  54  46 E7        30.02S
OWATONNA       SUNNY     73  52  46 SE8       30.02S
WASECA         SUNNY     72  52  49 SE3       30.03S
ALBERT LEA     SUNNY     73  52  46 E7        30.01S
$$
MNZ078>079-086>088-094>096-022100-
   Southeast Minnesota

CITY           SKY/WX    TMP DP  RH WIND       PRES   REMARKS
ROCHESTER      SUNNY     72  53  51 SE7       30.03S
RED WING       SUNNY     77  48  36 SE7       30.00S
STANTON        PTSUNNY   75  54  46 S5        30.00S
DODGE CENTER   SUNNY     73  54  49 S3        30.03S
WINONA         SUNNY     73  52  46 S5        30.02S
AUSTIN         SUNNY     75  52  43 SE5       30.01F
PRESTON        MOSUNNY   71  51  50 NE5       30.04S
$$
ABBREVIATIONS USED IN REMARKS
   TC - TEMPERATURES IN CELSIUS
  WCI - WIND CHILL INDEX
   HX - HEAT INDEX
  VSB - VISIBILITY
$$



USA.gov is the U.S. government's official web portal to all federal, state and local government web resources and services.